Time,TemperatureF,DewpointF,PressureIn,WindDirection,WindDirectionDegrees,WindSpeedMPH,WindSpeedGustMPH,Humidity,HourlyPrecipIn,Conditions,Clouds,dailyrainin,SolarRadiationWatts/m^2,SoftwareType,DateUTC
2013-04-12 00:03:00,67.0,66.0,-100.00,SSW,193,3.0,15.0,97,0.00,,,0.92,0.000000,,2013-04-12 05:03:00,
2013-04-12 00:12:00,67.0,66.0,-100.00,SSW,193,3.0,15.0,97,0.00,,,0.92,0.000000,,2013-04-12 05:12:00,
2013-04-12 00:32:00,67.0,66.0,-100.00,WNW,286,3.0,6.0,97,0.00,,,0.92,0.000000,,2013-04-12 05:32:00,
2013-04-12 00:42:00,67.0,66.0,-100.00,WNW,286,3.0,6.0,97,0.00,,,0.92,0.000000,,2013-04-12 05:42:00,
2013-04-12 00:52:00,67.0,66.0,-100.00,WNW,286,3.0,6.0,97,0.00,,,0.92,0.000000,,2013-04-12 05:52:00,
2013-04-12 01:02:00,67.0,66.0,-100.00,WNW,286,3.0,6.0,97,0.00,,,0.92,0.000000,,2013-04-12 06:02:00,
2013-04-12 01:12:00,67.0,66.0,-100.00,WNW,286,3.0,6.0,97,0.00,,,0.92,0.000000,,2013-04-12 06:12:00,
2013-04-12 01:32:00,64.0,62.0,-100.00,NNW,327,5.0,11.0,93,0.00,,,0.92,0.000000,,2013-04-12 06:32:00,
2013-04-12 01:42:00,64.0,62.0,-100.00,NNW,327,5.0,11.0,93,0.00,,,0.92,0.000000,,2013-04-12 06:42:00,
2013-04-12 01:52:00,64.0,62.0,-100.00,NNW,327,5.0,11.0,93,0.00,,,0.92,0.000000,,2013-04-12 06:52:00,
2013-04-12 02:01:00,64.0,62.0,-100.00,NNW,327,5.0,11.0,93,0.00,,,0.92,0.000000,,2013-04-12 07:01:00,
2013-04-12 02:11:00,64.0,62.0,-100.00,NNW,327,5.0,11.0,93,0.00,,,0.92,0.000000,,2013-04-12 07:11:00,
2013-04-12 02:42:00,62.0,60.0,-100.00,NW,315,5.0,13.0,94,0.00,,,0.92,0.000000,,2013-04-12 07:42:00,
2013-04-12 02:52:00,62.0,60.0,-100.00,NW,315,5.0,13.0,94,0.00,,,0.92,0.000000,,2013-04-12 07:52:00,
2013-04-12 03:03:00,62.0,60.0,-100.00,NW,315,5.0,13.0,94,0.00,,,0.92,0.000000,,2013-04-12 08:03:00,
2013-04-12 03:12:00,62.0,60.0,-100.00,NW,315,5.0,13.0,94,0.00,,,0.92,0.000000,,2013-04-12 08:12:00,
2013-04-12 03:43:00,61.0,59.0,-100.00,NW,305,6.0,13.0,93,0.00,,,0.92,0.000000,,2013-04-12 08:43:00,
2013-04-12 03:52:00,61.0,59.0,-100.00,NW,305,6.0,13.0,93,0.00,,,0.92,0.000000,,2013-04-12 08:52:00,
2013-04-12 04:02:00,61.0,59.0,-100.00,NW,305,6.0,13.0,93,0.00,,,0.92,0.000000,,2013-04-12 09:02:00,
2013-04-12 04:12:00,61.0,59.0,-100.00,NW,305,6.0,13.0,93,0.00,,,0.92,0.000000,,2013-04-12 09:12:00,
2013-04-12 04:44:00,60.0,58.0,-100.00,NNW,332,5.0,11.0,94,0.00,,,-99.99,0.000000,,2013-04-12 09:44:00,
2013-04-12 04:53:00,60.0,58.0,-100.00,NNW,332,5.0,11.0,94,0.00,,,-99.99,0.000000,,2013-04-12 09:53:00,
2013-04-12 05:03:00,60.0,58.0,-100.00,NNW,332,5.0,11.0,94,0.00,,,-99.99,0.000000,,2013-04-12 10:03:00,
2013-04-12 05:12:00,60.0,58.0,-100.00,NNW,332,5.0,11.0,94,0.00,,,-99.99,0.000000,,2013-04-12 10:12:00,
2013-04-12 05:42:00,59.0,56.0,-100.00,NW,323,6.0,13.0,91,0.00,,,-99.99,0.000000,,2013-04-12 10:42:00,
2013-04-12 05:53:00,59.0,56.0,-100.00,NW,323,6.0,13.0,91,0.00,,,-99.99,0.000000,,2013-04-12 10:53:00,
2013-04-12 06:02:00,59.0,56.0,-100.00,NW,323,6.0,13.0,91,0.00,,,-99.99,0.000000,,2013-04-12 11:02:00,
2013-04-12 06:13:00,59.0,56.0,-100.00,NW,323,6.0,13.0,91,0.00,,,-99.99,0.000000,,2013-04-12 11:13:00,
2013-04-12 06:43:00,57.0,53.0,-100.00,NNW,330,7.0,17.0,88,0.00,,,0.92,0.000000,,2013-04-12 11:43:00,
2013-04-12 06:52:00,57.0,53.0,-100.00,NNW,330,7.0,17.0,88,0.00,,,0.92,0.000000,,2013-04-12 11:52:00,
2013-04-12 07:02:00,57.0,53.0,-100.00,NNW,330,7.0,17.0,88,0.00,,,0.92,0.000000,,2013-04-12 12:02:00,
2013-04-12 07:13:00,57.0,53.0,-100.00,NNW,330,7.0,17.0,88,0.00,,,0.92,0.000000,,2013-04-12 12:13:00,
2013-04-12 07:43:00,55.0,51.0,-100.00,NW,323,7.0,19.0,86,0.00,,,0.92,9.000000,,2013-04-12 12:43:00,
2013-04-12 07:53:00,55.0,51.0,-100.00,NW,323,7.0,19.0,86,0.00,,,0.92,9.000000,,2013-04-12 12:53:00,
2013-04-12 08:03:00,55.0,51.0,-100.00,NW,323,7.0,19.0,86,0.00,,,0.92,9.000000,,2013-04-12 13:03:00,
2013-04-12 08:12:00,55.0,51.0,-100.00,NW,323,7.0,19.0,86,0.00,,,0.92,9.000000,,2013-04-12 13:12:00,
2013-04-12 08:32:00,55.0,50.0,-100.00,NNW,342,7.0,15.0,82,0.00,,,0.92,81.000000,,2013-04-12 13:32:00,
2013-04-12 08:43:00,55.0,50.0,-100.00,NNW,342,7.0,15.0,82,0.00,,,0.92,81.000000,,2013-04-12 13:43:00,
2013-04-12 08:53:00,55.0,50.0,-100.00,NNW,342,7.0,15.0,82,0.00,,,0.92,81.000000,,2013-04-12 13:53:00,
2013-04-12 09:03:00,55.0,50.0,-100.00,NNW,342,7.0,15.0,82,0.00,,,0.92,81.000000,,2013-04-12 14:03:00,
2013-04-12 09:13:00,55.0,50.0,-100.00,NNW,342,7.0,15.0,82,0.00,,,0.92,81.000000,,2013-04-12 14:13:00,
2013-04-12 09:43:00,58.0,50.0,-100.00,NW,323,7.0,15.0,75,0.00,,,0.92,308.000000,,2013-04-12 14:43:00,
2013-04-12 09:53:00,58.0,50.0,-100.00,NW,323,7.0,15.0,75,0.00,,,0.92,308.000000,,2013-04-12 14:53:00,
2013-04-12 10:02:00,58.0,50.0,-100.00,NW,323,7.0,15.0,75,0.00,,,0.92,308.000000,,2013-04-12 15:02:00,
2013-04-12 10:12:00,58.0,50.0,-100.00,NW,323,7.0,15.0,75,0.00,,,0.92,308.000000,,2013-04-12 15:12:00,
2013-04-12 10:43:00,63.0,47.0,-100.00,North,351,9.0,19.0,55,0.00,,,-99.99,689.000000,,2013-04-12 15:43:00,
2013-04-12 10:53:00,63.0,47.0,-100.00,North,351,9.0,19.0,55,0.00,,,-99.99,689.000000,,2013-04-12 15:53:00,
2013-04-12 11:03:00,63.0,47.0,-100.00,North,351,9.0,19.0,55,0.00,,,-99.99,689.000000,,2013-04-12 16:03:00,
2013-04-12 11:13:00,63.0,47.0,-100.00,North,351,9.0,19.0,55,0.00,,,-99.99,689.000000,,2013-04-12 16:13:00,
2013-04-12 11:43:00,67.0,46.0,-100.00,North,352,7.0,17.0,47,0.00,,,-99.99,852.000000,,2013-04-12 16:43:00,
2013-04-12 11:53:00,67.0,46.0,-100.00,North,352,7.0,17.0,47,0.00,,,-99.99,852.000000,,2013-04-12 16:53:00,
2013-04-12 12:03:00,67.0,46.0,-100.00,North,352,7.0,17.0,47,0.00,,,-99.99,852.000000,,2013-04-12 17:03:00,
2013-04-12 12:12:00,67.0,46.0,-100.00,North,352,7.0,17.0,47,0.00,,,-99.99,852.000000,,2013-04-12 17:12:00,
2013-04-12 12:47:00,69.0,45.0,-100.00,NW,326,8.0,19.0,42,0.00,,,0.92,922.000000,,2013-04-12 17:47:00,
2013-04-12 13:10:00,69.0,45.0,-100.00,NW,326,8.0,19.0,42,0.00,,,0.92,922.000000,,2013-04-12 18:10:00,
2013-04-12 13:16:00,72.0,46.0,-100.00,North,2,7.0,15.0,40,0.00,,,0.92,950.000000,,2013-04-12 18:16:00,
2013-04-12 14:43:00,73.0,45.0,-100.00,North,2,5.0,14.0,37,0.00,,,0.92,918.000000,,2013-04-12 19:43:00,
2013-04-12 14:53:00,73.0,45.0,-100.00,North,2,5.0,14.0,37,0.00,,,0.92,918.000000,,2013-04-12 19:53:00,
2013-04-12 15:02:00,73.0,45.0,-100.00,North,2,5.0,14.0,37,0.00,,,0.92,918.000000,,2013-04-12 20:02:00,
2013-04-12 15:12:00,73.0,45.0,-100.00,North,2,5.0,14.0,37,0.00,,,0.92,918.000000,,2013-04-12 20:12:00,
2013-04-12 15:43:00,74.0,46.0,-100.00,NNW,337,5.0,14.0,37,0.00,,,0.92,688.000000,,2013-04-12 20:43:00,
2013-04-12 15:52:00,74.0,46.0,-100.00,NNW,337,5.0,14.0,37,0.00,,,0.92,688.000000,,2013-04-12 20:52:00,
2013-04-12 16:02:00,74.0,46.0,-100.00,NNW,337,5.0,14.0,37,0.00,,,0.92,688.000000,,2013-04-12 21:02:00,
2013-04-12 16:12:00,74.0,46.0,-100.00,NNW,337,5.0,14.0,37,0.00,,,0.92,688.000000,,2013-04-12 21:12:00,
2013-04-12 16:43:00,75.0,45.0,-100.00,NW,321,5.0,13.0,35,0.00,,,0.92,704.000000,,2013-04-12 21:43:00,
2013-04-12 16:53:00,75.0,45.0,-100.00,NW,321,5.0,13.0,35,0.00,,,0.92,704.000000,,2013-04-12 21:53:00,
2013-04-12 17:02:00,75.0,45.0,-100.00,NW,321,5.0,13.0,35,0.00,,,0.92,704.000000,,2013-04-12 22:02:00,
2013-04-12 17:13:00,75.0,45.0,-100.00,NW,321,5.0,13.0,35,0.00,,,0.92,704.000000,,2013-04-12 22:13:00,
2013-04-12 17:43:00,74.0,45.0,-100.00,NNW,335,5.0,11.0,35,0.00,,,0.92,461.000000,,2013-04-12 22:43:00,
2013-04-12 17:52:00,74.0,45.0,-100.00,NNW,335,5.0,11.0,35,0.00,,,0.92,461.000000,,2013-04-12 22:52:00,
2013-04-12 18:03:00,74.0,45.0,-100.00,NNW,335,5.0,11.0,35,0.00,,,0.92,461.000000,,2013-04-12 23:03:00,
2013-04-12 18:12:00,74.0,45.0,-100.00,NNW,335,5.0,11.0,35,0.00,,,0.92,461.000000,,2013-04-12 23:12:00,
2013-04-12 18:32:00,70.0,45.0,-100.00,NNW,333,5.0,10.0,40,0.00,,,0.92,238.000000,,2013-04-12 23:32:00,
2013-04-12 18:42:00,70.0,45.0,-100.00,NNW,333,5.0,10.0,40,0.00,,,0.92,238.000000,,2013-04-12 23:42:00,
2013-04-12 18:52:00,70.0,45.0,-100.00,NNW,333,5.0,10.0,40,0.00,,,0.92,238.000000,,2013-04-12 23:52:00,
2013-04-12 19:02:00,70.0,45.0,-100.00,NNW,333,5.0,10.0,40,0.00,,,0.92,238.000000,,2013-04-13 00:02:00,
2013-04-12 19:12:00,70.0,45.0,-100.00,NNW,333,5.0,10.0,40,0.00,,,0.92,238.000000,,2013-04-13 00:12:00,
2013-04-12 19:42:00,64.0,45.0,-100.00,NNW,334,2.0,13.0,51,0.00,,,0.64,13.000000,,2013-04-13 00:42:00,
2013-04-12 19:52:00,64.0,45.0,-100.00,NNW,334,2.0,13.0,51,0.00,,,0.64,13.000000,,2013-04-13 00:52:00,
2013-04-12 20:02:00,64.0,45.0,-100.00,NNW,334,2.0,13.0,51,0.00,,,0.64,13.000000,,2013-04-13 01:02:00,
2013-04-12 20:12:00,64.0,45.0,-100.00,NNW,334,2.0,13.0,51,0.00,,,0.64,13.000000,,2013-04-13 01:12:00,
2013-04-12 20:33:00,61.0,47.0,-100.00,NNW,332,4.0,8.0,59,0.00,,,0.20,0.000000,,2013-04-13 01:33:00,
2013-04-12 20:43:00,61.0,47.0,-100.00,NNW,332,4.0,8.0,59,0.00,,,0.20,0.000000,,2013-04-13 01:43:00,
2013-04-12 20:52:00,61.0,47.0,-100.00,NNW,332,4.0,8.0,59,0.00,,,0.20,0.000000,,2013-04-13 01:52:00,
2013-04-12 21:02:00,61.0,47.0,-100.00,NNW,332,4.0,8.0,59,0.00,,,0.20,0.000000,,2013-04-13 02:02:00,
2013-04-12 21:12:00,61.0,47.0,-100.00,NNW,332,4.0,8.0,59,0.00,,,0.20,0.000000,,2013-04-13 02:12:00,
2013-04-12 21:43:00,58.0,46.0,-100.00,North,2,1.0,9.0,65,0.00,,,0.00,0.000000,,2013-04-13 02:43:00,
2013-04-12 21:53:00,58.0,46.0,-100.00,North,2,1.0,9.0,65,0.00,,,0.00,0.000000,,2013-04-13 02:53:00,
2013-04-12 22:02:00,58.0,46.0,-100.00,North,2,1.0,9.0,65,0.00,,,0.00,0.000000,,2013-04-13 03:02:00,
2013-04-12 22:12:00,58.0,46.0,-100.00,North,2,1.0,9.0,65,0.00,,,0.00,0.000000,,2013-04-13 03:12:00,
2013-04-12 22:43:00,55.0,46.0,-100.00,NNE,31,1.0,5.0,71,0.00,,,0.00,0.000000,,2013-04-13 03:43:00,
2013-04-12 22:53:00,55.0,46.0,-100.00,NNE,31,1.0,5.0,71,0.00,,,0.00,0.000000,,2013-04-13 03:53:00,
2013-04-12 23:03:00,55.0,46.0,-100.00,NNE,31,1.0,5.0,71,0.00,,,0.00,0.000000,,2013-04-13 04:03:00,
2013-04-12 23:12:00,55.0,46.0,-100.00,NNE,31,1.0,5.0,71,0.00,,,0.00,0.000000,,2013-04-13 04:12:00,
2013-04-12 23:33:00,54.0,48.0,-100.00,NNW,334,3.0,6.0,79,0.00,,,-99.99,0.000000,,2013-04-13 04:33:00,
2013-04-12 23:42:00,54.0,48.0,-100.00,NNW,334,3.0,6.0,79,0.00,,,-99.99,0.000000,,2013-04-13 04:42:00,
2013-04-12 23:53:00,54.0,48.0,-100.00,NNW,334,3.0,6.0,79,0.00,,,-99.99,0.000000,,2013-04-13 04:53:00,